SCP
0 0 -0 0 0 0 0 0 0 0 0 0 0 0 0 0 0 0 0 0 0 0 0 0 0 0 0 0 0 0 0 0 0 0 0 0 0 0 0 0 0 0 1
0 0 0 0 0 0 0 0 0 0 0 0 0 0 0 0 0 0 0 0 0 0 0 0 0 0 0 0 0 0 0 0 0 0 0 0 0 0 0 0 0 0 0
0 0 0 0 0 0 0 0 0 0 0 0 0 0 0 0 0 0 0 0 0 0 0 0 0 0 0 0 0 0 0 0 0 0 0 0 0 0 0 0 0 0 0
0 0 0 0 0 0 0 0 0 0 0 0 0 0 0 0 0 0 0 0 0 0 0 0 0 0 0 0 0 0 0 -0 0 0 0 0 0 0 0 0 0 0 0
0 0 0 0 0 0 0 0 0 0 0 0 0 0 1 0 0 0 0 0 0 0 0 0 0 -0 -0 0 0 0 0 0 0 0 0 0 0 0 0 0 0 0 0
0 0 0 0 -0 0 0 0 0 0 0 0 0 0 0 0 0 0 0 0 0 0 0 -0 0 0 0 0 0 0 0 0 0 0 0 0 0 0 0 0 0 0 0
0 0 0 -0 -0 -0 0 0 0 0 0 0 0 0 0 0 0 0 0 0 0 0 -0 0 0 0 0 0 0 0 0 0 0 0 0 0 0 0 0 0 0 0 0
0 0 -0 -0 -0 -0 -0 0 0 0 0 0 0 0 0 0 0 0 0 0 0 0 0 -0 0 0 0 0 0 -0 0 0 0 0 0 0 0 0 0 0 0 0 0
0 -0 -0 -0 -0 -0 -0 -0 0 0 0 0 0 0 0 0 0 0 0 0 0 0 -0 0 0 0 0 0 0 -0 0 0 0 -0 -0 0 0 0 0 0 0 0 0
-0 -0 -0 -0 -0 -0 -0 -0 0 0 0 0 0 0 0 0 0 0 0 0 0 0 0 0 0 0 0 0 0 0 0 0 0 0 0 0 0 0 0 0 0 0 0
-0 -0 -0 -0 -0 -0 -0 -0 0 0 0 0 0 0 0 0 0 0 -0 0 -0 -0 0 0 0 0 0 0 0 0 0 -0 -0 -0 0 0 0 0 0 0 0 0 0
-0 -0 -0 -0 -0 -0 -0 -0 0 0 0 0 0 0 0 0 0 0 0 -0 -0 -0 0 0 0 0 0 0 0 0 0 -0 -0 -0 0 0 0 0 0 0 0 0 0
-0 -0 -0 -0 -0 -0 -0 -0 0 0 0 0 0 0 0 0 0 0 0 -0 -0 -0 -0 0 0 0 0 0 0 0 0 0 -0 -0 0 0 -0 0 0 0 0 0 0
-0 -0 -0 -0 -0 -0 -0 -0 0 0 0 0 0 0 0 0 0 0 0 -0 -0 -0 -0 0 0 0 0 0 0 0 0 0 0 -0 -0 0 0 0 0 0 0 0 0
-0 -0 -0 -0 -0 -0 -0 -0 0 0 0 0 0 0 0 0 0 -0 -0 -0 -0 -0 -0 0 0 0 0 0 0 0 0 0 0 0 0 -0 0 0 0 0 0 0 0
-0 -0 -0 -0 -0 -0 -0 -0 0 0 0 0 0 0 -0 -0 -0 -0 0 -0 -0 -0 -0 -0 -0 0 0 0 0 0 0 0 0 0 0 0 0 0 0 0 0 0 0
-0 -0 -0 -0 -0 -0 -0 -0 -0 -0 -0 -0 0 0 -0 -0 0 -0 0 -0 -0 0 -0 -0 -0 0 0 0 0 -0 0 0 0 0 0 0 -0 0 0 0 -0 0 -0
-0 -0 -0 -0 -0 -0 -0 -0 -0 -0 -0 -0 0 0 0 -0 0 0 0 0 0 -0 0 -0 -0 0 0 0 0 -0 0 0 0 0 -0 -0 -0 -0 -0 0 0 -0 0
-0 -0 -0 -0 -0 -0 -0 -0 -0 -0 -0 -0 -0 -0 0 0 -0 0 0 0 0 0 0 0 0 -0 -0 0 0 0 0 0 0 0 -0 0 -0 -0 0 0 0 -0 0
-0 -0 -0 -0 -0 -0 -0 -0 -0 -0 -0 -0 0 -0 0 0 0 0 0 0 0 0 0 0 0 0 0 0 0 -0 0 0 0 0 0 0 0 0 -0 0 0 0 0
-0 -0 -0 -0 -0 -0 -0 -0 -0 -0 -0 -0 0 0 -0 0 0 0 0 0 0 0 0 0 0 0 0 0 0 0 0 0 0 0 0 0 -0 -0 0 0 0 0 0
-0 -0 -0 -0 -0 -0 -0 -0 -0 -0 -0 -0 -0 -0 0 0 0 0 0 0 0 0 0 0 0 0 0 0 0 0 0 0 -0 0 0 -0 -0 0 0 0 0 -0 -0
0 -0 -0 -0 -0 -0 -0 -0 0 -0 -0 -0 -0 -0 -0 0 -0 -0 -0 0 0 0 0 0 0 0 0 0 0 0 0 0 0 0 -0 -0 -0 -0 0 0 -0 -0 0
-0 0 -0 -0 -0 -0 -0 -0 -0 -0 -0 -0 -0 -0 -0 -0 -0 0 0 0 0 0 0 0 0 0 0 0 0 0 -0 -0 -0 -0 0 -0 -0 -0 -0 -0 0 -0 0
-0 0 -0 -0 -0 -0 -0 -0 -0 -0 -0 -0 -0 -0 -0 -0 -0 0 0 0 0 0 0 0 0 0 0 0 0 0 0 0 -0 -0 -0 -0 -0 0 0 0 0 0 0
0 0 0 0 -0 -0 -0 -0 -0 -0 -0 -0 -0 -0 -0 -0 0 0 -0 0 -0 -0 -0 -0 -0 -0 -0 0 -0 0 0 -0 -0 0 0 0 0 0 0 0 -0 -0 -0
Wind_Speed_500mb
65 58 46 32 29 34 42 53 63 60 55 47 42 34 28 23 24 27 32 31 26 24 25 27 26 26 26 25 25 26 27 26 25 23 21 20 19 18 21 21 20 22 24
54 38 30 25 24 31 42 52 60 58 49 41 31 26 21 22 22 26 27 22 19 21 25 27 23 21 22 24 24 26 27 27 28 21 18 14 14 19 20 19 20 22 22
40 22 24 23 28 33 43 55 58 49 40 32 27 20 19 17 18 18 17 15 15 18 20 19 17 18 17 17 18 22 26 27 32 23 14 12 13 16 13 15 16 15 14
34 23 22 19 25 33 44 57 50 42 34 28 21 17 14 11 13 14 12 14 12 9 4 7 12 13 11 11 10 16 24 28 29 29 21 14 16 14 10 11 8 8 8
19 20 18 17 24 41 57 51 44 35 29 24 20 13 6 8 10 11 12 14 10 5 5 6 9 7 6 8 15 19 25 26 25 29 26 18 15 20 16 17 18 12 9
12 16 20 27 42 56 57 49 39 32 27 22 17 9 4 7 9 12 15 12 10 8 8 10 8 6 5 8 12 18 22 23 20 19 27 22 6 12 16 25 29 25 27
16 30 39 50 63 64 54 45 38 32 24 20 18 7 3 5 10 13 15 7 6 13 13 12 11 8 7 9 13 17 19 19 16 16 22 18 11 5 12 32 42 35 32
25 32 41 56 65 59 51 44 38 29 22 22 15 7 2 7 10 14 8 3 12 17 16 15 13 12 9 11 11 14 17 15 14 12 15 16 14 5 13 36 45 39 30
30 39 49 59 61 55 47 41 36 25 23 22 14 9 3 7 11 10 8 10 16 21 18 17 12 10 6 6 7 12 15 9 6 11 16 12 9 23 22 28 29 36 33
34 40 54 60 56 48 43 40 29 23 26 19 15 10 2 6 8 7 10 12 17 22 20 18 11 8 5 6 9 9 9 10 19 17 17 14 21 29 22 21 17 41 50
39 44 49 57 52 47 44 40 30 27 26 19 17 8 3 4 5 3 7 11 17 19 20 18 11 7 4 7 6 8 11 15 17 17 21 24 33 30 29 40 43 49 47
40 45 49 57 53 49 46 38 31 28 25 20 16 10 4 2 3 1 5 11 17 17 17 15 10 7 8 9 10 10 14 18 18 20 26 22 35 33 38 38 50 42 43
43 45 50 57 53 50 46 38 31 28 24 19 15 10 4 2 3 7 11 16 18 19 17 17 14 13 15 17 18 19 21 23 22 21 24 27 30 27 35 43 45 39 51
48 50 53 54 51 50 45 38 34 30 24 19 16 11 4 4 5 14 16 17 21 22 22 24 23 20 21 20 23 25 27 26 27 26 27 29 26 31 32 41 37 40 59
49 53 58 56 54 51 46 38 36 32 27 21 18 12 9 9 16 20 21 23 25 25 26 27 26 21 22 23 26 28 28 29 31 30 30 29 27 31 34 36 41 53 56
47 51 57 58 57 54 50 42 40 36 30 24 20 15 14 18 24 24 23 25 25 26 27 26 22 20 23 22 17 16 15 22 32 33 33 33 31 34 30 29 32 34 53
54 61 66 67 61 57 52 46 44 39 33 28 23 22 18 23 28 25 23 21 22 23 23 22 19 17 16 15 10 9 15 25 34 34 35 38 42 37 31 30 30 49 45
52 59 65 68 61 56 52 45 45 42 36 32 28 30 24 25 28 25 21 19 20 20 17 13 13 15 15 13 9 6 24 32 34 39 42 49 47 46 50 55 51 48 54
62 63 66 67 62 60 56 51 47 46 41 37 34 38 31 29 30 26 21 18 19 19 16 10 12 16 21 18 12 19 28 35 39 42 48 44 50 49 48 47 55 56 40
59 61 64 67 63 61 60 57 52 52 48 41 37 42 35 33 29 24 20 18 20 22 22 19 20 22 26 28 24 28 32 33 43 46 51 48 49 48 39 36 38 41 41
47 60 66 73 69 65 64 62 57 57 52 44 40 41 38 34 30 27 22 18 23 24 27 28 31 31 30 32 29 26 25 38 47 47 50 52 42 39 33 36 37 36 37
54 64 68 73 72 67 66 66 63 54 53 48 44 40 42 39 35 30 28 23 23 25 29 30 32 30 29 28 29 30 34 50 53 51 50 46 39 35 34 37 38 39 40
52 63 72 76 77 71 67 68 62 59 57 53 49 44 42 42 38 37 32 30 24 25 29 32 32 33 31 30 30 31 38 35 36 45 46 41 38 36 38 40 36 31 29
54 66 67 80 84 77 67 59 62 62 61 58 52 50 45 47 44 39 33 32 30 29 31 32 33 34 34 35 34 33 34 35 35 36 35 34 34 36 36 35 33 29 24
50 69 80 89 89 84 72 68 63 67 66 61 56 55 51 47 46 44 39 37 33 28 30 34 34 36 36 34 35 36 37 36 35 34 32 34 37 39 40 39 35 31 26
50 67 79 78 87 87 81 73 68 68 69 67 62 60 58 53 49 48 43 41 37 31 25 20 27 34 32 32 33 35 34 33 33 34 34 37 38 40 42 42 40 37 34
Wind_Direction_500mb
297 298 294 279 257 246 234 216 207 200 198 205 219 227 235 250 274 284 288 290 278 265 264 261 255 252 240 242 244 248 241 228 211 210 210 215 229 216 227 239 231 231 235
293 293 283 272 248 233 215 202 197 194 194 211 218 223 234 255 277 288 292 291 275 266 268 267 249 239 232 242 248 245 235 218 205 200 182 177 191 207 226 238 226 234 233
289 293 280 256 233 212 200 190 180 182 196 204 207 216 235 265 294 295 303 293 284 280 273 258 235 223 237 245 246 237 222 204 199 189 176 161 189 184 208 220 223 219 205
275 274 272 248 218 198 179 170 173 184 189 195 197 207 237 271 296 306 307 302 300 305 264 202 203 219 231 233 226 208 194 194 203 193 190 182 178 171 173 172 184 177 174
257 250 233 212 185 173 166 168 177 179 182 186 187 203 264 282 303 319 315 302 301 273 214 193 181 184 197 212 203 193 186 193 202 200 194 177 162 163 153 164 148 147 157
240 199 170 159 157 161 166 172 173 173 177 184 187 183 297 299 319 320 313 303 276 216 166 150 144 152 176 194 178 178 185 191 202 207 199 195 160 177 180 155 148 139 146
168 158 157 156 157 163 170 171 171 171 176 182 175 175 320 337 331 324 324 296 235 169 153 139 120 117 132 158 177 187 194 197 205 201 198 210 219 203 189 170 156 143 139
163 156 158 159 161 167 172 171 169 170 174 170 162 163 39 359 347 340 326 175 160 152 151 137 123 118 132 141 153 175 189 208 218 219 206 203 216 184 189 170 161 144 148
164 160 163 165 167 171 173 171 166 170 169 163 163 160 91 15 12 18 66 122 151 153 152 152 141 145 137 116 148 170 182 186 196 182 177 202 206 156 144 160 151 173 144
159 163 167 171 172 171 171 167 166 168 163 159 162 162 140 24 21 44 79 106 146 156 163 168 155 157 157 113 134 152 178 184 171 179 203 201 174 163 180 204 183 187 163
163 167 172 173 172 172 170 167 167 166 166 162 165 170 173 13 21 41 83 125 142 158 168 170 160 137 127 114 133 159 169 162 163 182 196 188 181 167 169 165 173 175 164
162 168 174 172 176 173 171 171 169 167 168 167 170 184 199 354 26 91 137 142 152 163 162 170 181 150 125 124 136 142 145 145 151 130 129 143 174 160 161 149 160 159 157
162 170 174 175 179 176 174 174 171 172 172 176 179 187 181 134 68 150 132 133 146 150 151 149 147 137 124 113 106 103 117 116 120 124 129 143 150 141 157 164 153 148 153
167 172 174 179 182 177 176 175 175 176 177 179 174 182 138 121 115 148 134 130 138 137 137 136 137 130 123 113 101 99 103 110 111 120 123 134 136 137 142 146 149 155 150
173 177 177 182 182 178 178 176 177 178 176 175 168 163 133 117 132 134 130 132 130 130 133 138 139 132 116 112 106 101 93 108 114 121 122 127 143 136 134 138 147 155 151
177 178 182 185 183 181 180 177 178 179 178 176 169 156 129 124 134 128 130 132 129 131 130 136 140 140 137 126 117 95 101 114 121 121 120 129 137 142 135 131 139 148 153
180 183 186 187 186 185 182 180 179 179 181 180 172 161 144 133 132 128 129 130 131 134 137 137 145 153 152 143 133 108 131 135 131 139 130 126 133 135 139 155 145 148 152
183 186 188 189 188 186 183 181 181 180 184 183 175 164 150 138 140 132 123 126 139 142 142 142 152 158 157 149 126 114 133 138 139 142 137 149 135 127 126 130 132 136 137
199 193 190 189 186 187 183 183 182 183 187 189 181 174 163 146 141 133 123 121 136 146 130 123 150 156 156 135 121 131 133 136 142 142 148 144 134 131 132 136 137 140 140
197 190 188 189 187 186 184 186 186 187 189 192 187 180 177 173 161 147 136 126 136 143 131 117 118 138 136 129 123 124 134 146 139 144 145 141 136 132 129 133 137 139 139
204 190 188 189 186 185 185 188 190 191 187 190 194 190 185 178 174 166 153 136 142 145 142 131 126 121 117 123 132 133 121 142 149 150 143 144 141 131 129 133 137 141 143
201 194 189 189 187 188 188 190 195 189 188 189 194 194 189 184 179 174 169 156 153 148 151 153 142 139 133 134 129 128 136 128 131 138 141 144 142 135 133 138 134 130 143
204 200 188 188 190 191 193 194 193 189 188 189 195 196 194 192 188 183 180 176 167 168 157 159 161 157 151 146 143 140 140 149 148 149 151 152 153 150 149 149 148 142 141
201 202 193 188 190 192 195 198 191 188 189 189 196 198 198 196 196 195 194 197 188 180 180 170 167 169 168 167 165 162 159 159 162 167 172 174 174 172 170 171 169 167 167
202 202 199 194 193 190 194 198 194 190 191 192 198 201 201 199 200 203 205 204 203 198 191 191 187 181 176 174 172 169 166 166 169 174 177 182 186 189 190 193 195 197 192
205 205 204 202 197 195 196 200 196 195 194 193 197 201 204 203 203 206 205 209 207 204 200 195 204 203 199 189 184 184 183 184 185 186 191 195 196 198 202 206 210 210 210
Wind_Speed_850mb
65 58 46 32 29 34 42 53 63 60 55 47 42 34 28 23 24 27 32 31 26 24 25 27 26 26 26 25 25 26 27 26 25 23 21 20 19 18 21 21 20 22 24
54 38 30 25 24 31 42 52 60 58 49 41 31 26 21 22 22 26 27 22 19 21 25 27 23 21 22 24 24 26 27 27 28 21 18 14 14 19 20 19 20 22 22
40 22 24 23 28 33 43 55 58 49 40 32 27 20 19 17 18 18 17 15 15 18 20 19 17 18 17 17 18 22 26 27 32 23 14 12 13 16 13 15 16 15 14
34 23 22 19 25 33 44 57 50 42 34 28 21 17 14 11 13 14 12 14 12 9 4 7 12 13 11 11 10 16 24 28 29 29 21 14 16 14 10 11 8 8 8
19 20 18 17 24 41 57 51 44 35 29 24 20 13 6 8 10 11 12 14 10 5 5 6 9 7 6 8 15 19 25 26 25 29 26 18 15 20 16 17 18 12 9
12 16 20 27 42 56 57 49 39 32 27 22 17 9 4 7 9 12 15 12 10 8 8 10 8 6 5 8 12 18 22 23 20 19 27 22 6 12 16 25 29 25 27
16 30 39 50 63 64 54 45 38 32 24 20 18 7 3 5 10 13 15 7 6 13 13 12 11 8 7 9 13 17 19 19 16 16 22 18 11 5 12 32 42 35 32
25 32 41 56 65 59 51 44 38 29 22 22 15 7 2 7 10 14 8 3 12 17 16 15 13 12 9 11 11 14 17 15 14 12 15 16 14 5 13 36 45 39 30
30 39 49 59 61 55 47 41 36 25 23 22 14 9 3 7 11 10 8 10 16 21 18 17 12 10 6 6 7 12 15 9 6 11 16 12 9 23 22 28 29 36 33
34 40 54 60 56 48 43 40 29 23 26 19 15 10 2 6 8 7 10 12 17 22 20 18 11 8 5 6 9 9 9 10 19 17 17 14 21 29 22 21 17 41 50
39 44 49 57 52 47 44 40 30 27 26 19 17 8 3 4 5 3 7 11 17 19 20 18 11 7 4 7 6 8 11 15 17 17 21 24 33 30 29 40 43 49 47
40 45 49 57 53 49 46 38 31 28 25 20 16 10 4 2 3 1 5 11 17 17 17 15 10 7 8 9 10 10 14 18 18 20 26 22 35 33 38 38 50 42 43
43 45 50 57 53 50 46 38 31 28 24 19 15 10 4 2 3 7 11 16 18 19 17 17 14 13 15 17 18 19 21 23 22 21 24 27 30 27 35 43 45 39 51
48 50 53 54 51 50 45 38 34 30 24 19 16 11 4 4 5 14 16 17 21 22 22 24 23 20 21 20 23 25 27 26 27 26 27 29 26 31 32 41 37 40 59
49 53 58 56 54 51 46 38 36 32 27 21 18 12 9 9 16 20 21 23 25 25 26 27 26 21 22 23 26 28 28 29 31 30 30 29 27 31 34 36 41 53 56
47 51 57 58 57 54 50 42 40 36 30 24 20 15 14 18 24 24 23 25 25 26 27 26 22 20 23 22 17 16 15 22 32 33 33 33 31 34 30 29 32 34 53
54 61 66 67 61 57 52 46 44 39 33 28 23 22 18 23 28 25 23 21 22 23 23 22 19 17 16 15 10 9 15 25 34 34 35 38 42 37 31 30 30 49 45
52 59 65 68 61 56 52 45 45 42 36 32 28 30 24 25 28 25 21 19 20 20 17 13 13 15 15 13 9 6 24 32 34 39 42 49 47 46 50 55 51 48 54
62 63 66 67 62 60 56 51 47 46 41 37 34 38 31 29 30 26 21 18 19 19 16 10 12 16 21 18 12 19 28 35 39 42 48 44 50 49 48 47 55 56 40
59 61 64 67 63 61 60 57 52 52 48 41 37 42 35 33 29 24 20 18 20 22 22 19 20 22 26 28 24 28 32 33 43 46 51 48 49 48 39 36 38 41 41
47 60 66 73 69 65 64 62 57 57 52 44 40 41 38 34 30 27 22 18 23 24 27 28 31 31 30 32 29 26 25 38 47 47 50 52 42 39 33 36 37 36 37
54 64 68 73 72 67 66 66 63 54 53 48 44 40 42 39 35 30 28 23 23 25 29 30 32 30 29 28 29 30 34 50 53 51 50 46 39 35 34 37 38 39 40
52 63 72 76 77 71 67 68 62 59 57 53 49 44 42 42 38 37 32 30 24 25 29 32 32 33 31 30 30 31 38 35 36 45 46 41 38 36 38 40 36 31 29
54 66 67 80 84 77 67 59 62 62 61 58 52 50 45 47 44 39 33 32 30 29 31 32 33 34 34 35 34 33 34 35 35 36 35 34 34 36 36 35 33 29 24
50 69 80 89 89 84 72 68 63 67 66 61 56 55 51 47 46 44 39 37 33 28 30 34 34 36 36 34 35 36 37 36 35 34 32 34 37 39 40 39 35 31 26
50 67 79 78 87 87 81 73 68 68 69 67 62 60 58 53 49 48 43 41 37 31 25 20 27 34 32 32 33 35 34 33 33 34 34 37 38 40 42 42 40 37 34
Wind_Direction_850mb
297 298 294 279 257 246 234 216 207 200 198 205 219 227 235 250 274 284 288 290 278 265 264 261 255 252 240 242 244 248 241 228 211 210 210 215 229 216 227 239 231 231 235
293 293 283 272 248 233 215 202 197 194 194 211 218 223 234 255 277 288 292 291 275 266 268 267 249 239 232 242 248 245 235 218 205 200 182 177 191 207 226 238 226 234 233
289 293 280 256 233 212 200 190 180 182 196 204 207 216 235 265 294 295 303 293 284 280 273 258 235 223 237 245 246 237 222 204 199 189 176 161 189 184 208 220 223 219 205
275 274 272 248 218 198 179 170 173 184 189 195 197 207 237 271 296 306 307 302 300 305 264 202 203 219 231 233 226 208 194 194 203 193 190 182 178 171 173 172 184 177 174
257 250 233 212 185 173 166 168 177 179 182 186 187 203 264 282 303 319 315 302 301 273 214 193 181 184 197 212 203 193 186 193 202 200 194 177 162 163 153 164 148 147 157
240 199 170 159 157 161 166 172 173 173 177 184 187 183 297 299 319 320 313 303 276 216 166 150 144 152 176 194 178 178 185 191 202 207 199 195 160 177 180 155 148 139 146
168 158 157 156 157 163 170 171 171 171 176 182 175 175 320 337 331 324 324 296 235 169 153 139 120 117 132 158 177 187 194 197 205 201 198 210 219 203 189 170 156 143 139
163 156 158 159 161 167 172 171 169 170 174 170 162 163 39 359 347 340 326 175 160 152 151 137 123 118 132 141 153 175 189 208 218 219 206 203 216 184 189 170 161 144 148
164 160 163 165 167 171 173 171 166 170 169 163 163 160 91 15 12 18 66 122 151 153 152 152 141 145 137 116 148 170 182 186 196 182 177 202 206 156 144 160 151 173 144
159 163 167 171 172 171 171 167 166 168 163 159 162 162 140 24 21 44 79 106 146 156 163 168 155 157 157 113 134 152 178 184 171 179 203 201 174 163 180 204 183 187 163
163 167 172 173 172 172 170 167 167 166 166 162 165 170 173 13 21 41 83 125 142 158 168 170 160 137 127 114 133 159 169 162 163 182 196 188 181 167 169 165 173 175 164
162 168 174 172 176 173 171 171 169 167 168 167 170 184 199 354 26 91 137 142 152 163 162 170 181 150 125 124 136 142 145 145 151 130 129 143 174 160 161 149 160 159 157
162 170 174 175 179 176 174 174 171 172 172 176 179 187 181 134 68 150 132 133 146 150 151 149 147 137 124 113 106 103 117 116 120 124 129 143 150 141 157 164 153 148 153
167 172 174 179 182 177 176 175 175 176 177 179 174 182 138 121 115 148 134 130 138 137 137 136 137 130 123 113 101 99 103 110 111 120 123 134 136 137 142 146 149 155 150
173 177 177 182 182 178 178 176 177 178 176 175 168 163 133 117 132 134 130 132 130 130 133 138 139 132 116 112 106 101 93 108 114 121 122 127 143 136 134 138 147 155 151
177 178 182 185 183 181 180 177 178 179 178 176 169 156 129 124 134 128 130 132 129 131 130 136 140 140 137 126 117 95 101 114 121 121 120 129 137 142 135 131 139 148 153
180 183 186 187 186 185 182 180 179 179 181 180 172 161 144 133 132 128 129 130 131 134 137 137 145 153 152 143 133 108 131 135 131 139 130 126 133 135 139 155 145 148 152
183 186 188 189 188 186 183 181 181 180 184 183 175 164 150 138 140 132 123 126 139 142 142 142 152 158 157 149 126 114 133 138 139 142 137 149 135 127 126 130 132 136 137
199 193 190 189 186 187 183 183 182 183 187 189 181 174 163 146 141 133 123 121 136 146 130 123 150 156 156 135 121 131 133 136 142 142 148 144 134 131 132 136 137 140 140
197 190 188 189 187 186 184 186 186 187 189 192 187 180 177 173 161 147 136 126 136 143 131 117 118 138 136 129 123 124 134 146 139 144 145 141 136 132 129 133 137 139 139
204 190 188 189 186 185 185 188 190 191 187 190 194 190 185 178 174 166 153 136 142 145 142 131 126 121 117 123 132 133 121 142 149 150 143 144 141 131 129 133 137 141 143
201 194 189 189 187 188 188 190 195 189 188 189 194 194 189 184 179 174 169 156 153 148 151 153 142 139 133 134 129 128 136 128 131 138 141 144 142 135 133 138 134 130 143
204 200 188 188 190 191 193 194 193 189 188 189 195 196 194 192 188 183 180 176 167 168 157 159 161 157 151 146 143 140 140 149 148 149 151 152 153 150 149 149 148 142 141
201 202 193 188 190 192 195 198 191 188 189 189 196 198 198 196 196 195 194 197 188 180 180 170 167 169 168 167 165 162 159 159 162 167 172 174 174 172 170 171 169 167 167
202 202 199 194 193 190 194 198 194 190 191 192 198 201 201 199 200 203 205 204 203 198 191 191 187 181 176 174 172 169 166 166 169 174 177 182 186 189 190 193 195 197 192
205 205 204 202 197 195 196 200 196 195 194 193 197 201 204 203 203 206 205 209 207 204 200 195 204 203 199 189 184 184 183 184 185 186 191 195 196 198 202 206 210 210 210